Time,TemperatureF,DewpointF,PressureIn,WindDirection,WindDirectionDegrees,WindSpeedMPH,WindSpeedGustMPH,Humidity,HourlyPrecipIn,Conditions,Clouds,dailyrainin,SoftwareType,DateUTC
2013-02-21 00:10:00,33.6,30.0,30.06,NNW,329,0.0,0.0,88,0.00,,,0.00,weatherlink.com 1.10,2013-02-21 08:10:00,
2013-02-21 00:25:00,33.7,31.0,30.06,WSW,242,1.0,2.0,90,0.00,,,0.00,weatherlink.com 1.10,2013-02-21 08:25:00,
2013-02-21 00:40:00,32.7,30.0,30.07,West,269,1.0,2.0,88,0.00,,,0.00,weatherlink.com 1.10,2013-02-21 08:40:00,
2013-02-21 00:55:00,32.7,30.0,30.07,WSW,258,1.0,3.0,89,0.00,,,0.00,weatherlink.com 1.10,2013-02-21 08:55:00,
2013-02-21 01:10:00,32.6,30.0,30.06,NNE,24,0.0,2.0,89,0.00,,,0.00,weatherlink.com 1.10,2013-02-21 09:10:00,
2013-02-21 01:25:00,32.3,30.0,30.07,NNE,33,1.0,2.0,90,0.00,,,0.00,weatherlink.com 1.10,2013-02-21 09:25:00,
2013-02-21 01:40:00,32.7,30.0,30.06,NE,49,0.0,2.0,91,0.00,,,0.00,weatherlink.com 1.10,2013-02-21 09:40:00,
2013-02-21 01:55:00,32.6,30.0,30.06,SE,144,2.0,3.0,90,0.00,,,0.00,weatherlink.com 1.10,2013-02-21 09:55:00,
2013-02-21 02:10:00,32.8,30.0,30.07,SE,144,1.0,2.0,90,0.00,,,0.00,weatherlink.com 1.10,2013-02-21 10:10:00,
2013-02-21 02:25:00,31.5,29.0,30.06,SE,144,0.0,1.0,89,0.00,,,0.00,weatherlink.com 1.10,2013-02-21 10:25:00,
2013-02-21 02:40:00,31.6,29.0,30.07,SE,144,1.0,2.0,91,0.00,,,0.00,weatherlink.com 1.10,2013-02-21 10:40:00,
2013-02-21 02:55:00,32.3,30.0,30.07,SE,144,2.0,2.0,91,0.00,,,0.00,weatherlink.com 1.10,2013-02-21 10:55:00,
2013-02-21 03:10:00,31.9,29.0,30.06,SE,144,0.0,2.0,90,0.00,,,0.00,weatherlink.com 1.10,2013-02-21 11:10:00,
2013-02-21 03:25:00,31.2,29.0,30.06,ESE,110,1.0,4.0,90,0.00,,,0.00,weatherlink.com 1.10,2013-02-21 11:25:00,
2013-02-21 03:40:00,34.7,32.0,30.06,NNE,22,2.0,6.0,90,0.00,,,0.00,weatherlink.com 1.10,2013-02-21 11:40:00,
2013-02-21 03:55:00,36.9,33.0,30.07,NNE,14,0.0,1.0,86,0.00,,,0.00,weatherlink.com 1.10,2013-02-21 11:55:00,
2013-02-21 04:10:00,36.6,32.0,30.07,NNE,14,1.0,1.0,84,0.00,,,0.00,weatherlink.com 1.10,2013-02-21 12:10:00,
2013-02-21 04:25:00,36.2,32.0,30.07,SSE,150,1.0,3.0,85,0.00,,,0.00,weatherlink.com 1.10,2013-02-21 12:25:00,
2013-02-21 04:40:00,35.9,32.0,30.07,SSE,150,1.0,3.0,84,0.00,,,0.00,weatherlink.com 1.10,2013-02-21 12:40:00,
2013-02-21 04:55:00,35.7,32.0,30.07,SSE,150,1.0,3.0,85,0.00,,,0.00,weatherlink.com 1.10,2013-02-21 12:55:00,
2013-02-21 05:10:00,36.2,31.0,30.08,SSE,150,0.0,2.0,82,0.00,,,0.00,weatherlink.com 1.10,2013-02-21 13:10:00,
2013-02-21 05:25:00,34.5,31.0,30.09,NNW,337,0.0,2.0,86,0.00,,,0.00,weatherlink.com 1.10,2013-02-21 13:25:00,
2013-02-21 05:40:00,36.4,32.0,30.09,NW,315,3.0,7.0,83,0.00,,,0.00,weatherlink.com 1.10,2013-02-21 13:40:00,
2013-02-21 05:55:00,39.1,33.0,30.09,NW,320,4.0,7.0,80,0.00,,,0.00,weatherlink.com 1.10,2013-02-21 13:55:00,
2013-02-21 06:10:00,37.1,32.0,30.09,NNW,327,3.0,4.0,83,0.00,,,0.00,weatherlink.com 1.10,2013-02-21 14:10:00,
2013-02-21 06:25:00,37.4,33.0,30.09,NNW,336,2.0,7.0,83,0.00,,,0.00,weatherlink.com 1.10,2013-02-21 14:25:00,
2013-02-21 06:40:00,38.0,32.0,30.10,NNW,336,1.0,4.0,80,0.00,,,0.00,weatherlink.com 1.10,2013-02-21 14:40:00,
2013-02-21 06:55:00,37.5,33.0,30.10,NNW,336,0.0,2.0,82,0.00,,,0.00,weatherlink.com 1.10,2013-02-21 14:55:00,
2013-02-21 07:10:00,36.1,31.0,30.11,SSW,192,1.0,3.0,83,0.00,,,0.00,weatherlink.com 1.10,2013-02-21 15:10:00,
2013-02-21 07:25:00,35.4,31.0,30.12,South,191,2.0,3.0,85,0.00,,,0.00,weatherlink.com 1.10,2013-02-21 15:25:00,
2013-02-21 07:41:00,36.1,32.0,30.12,SSE,151,2.0,4.0,85,0.00,,,0.00,weatherlink.com 1.10,2013-02-21 15:41:00,
2013-02-21 07:56:00,37.4,33.0,30.13,SE,136,0.0,4.0,84,0.00,,,0.00,weatherlink.com 1.10,2013-02-21 15:56:00,
2013-02-21 08:11:00,39.8,35.0,30.14,East,82,1.0,3.0,83,0.00,,,0.00,weatherlink.com 1.10,2013-02-21 16:11:00,
2013-02-21 08:26:00,41.1,35.0,30.14,NE,39,1.0,3.0,80,0.00,,,0.00,weatherlink.com 1.10,2013-02-21 16:26:00,
2013-02-21 08:41:00,43.9,38.0,30.15,North,9,0.0,2.0,79,0.00,,,0.00,weatherlink.com 1.10,2013-02-21 16:41:00,
2013-02-21 08:56:00,47.6,38.0,30.15,North,5,1.0,2.0,70,0.00,,,0.00,weatherlink.com 1.10,2013-02-21 16:56:00,
2013-02-21 09:11:00,50.1,37.0,30.15,North,5,0.0,2.0,61,0.00,,,0.00,weatherlink.com 1.10,2013-02-21 17:11:00,
2013-02-21 09:26:00,51.0,35.0,30.15,NNE,16,4.0,6.0,54,0.00,,,0.00,weatherlink.com 1.10,2013-02-21 17:26:00,
2013-02-21 09:41:00,51.5,35.0,30.15,NNE,15,7.0,8.0,53,0.00,,,0.00,weatherlink.com 1.10,2013-02-21 17:41:00,
2013-02-21 09:56:00,52.0,34.0,30.15,North,355,3.0,10.0,51,0.00,,,0.00,weatherlink.com 1.10,2013-02-21 17:56:00,
2013-02-21 10:11:00,52.8,35.0,30.16,NW,323,1.0,8.0,51,0.00,,,0.00,weatherlink.com 1.10,2013-02-21 18:11:00,
2013-02-21 10:26:00,53.7,34.0,30.16,NW,321,3.0,7.0,48,0.00,,,0.00,weatherlink.com 1.10,2013-02-21 18:26:00,
2013-02-21 10:41:00,54.1,34.0,30.16,NNE,30,4.0,8.0,46,0.00,,,0.00,weatherlink.com 1.10,2013-02-21 18:41:00,
2013-02-21 10:56:00,55.7,34.0,30.16,NNE,32,6.0,6.0,44,0.00,,,0.00,weatherlink.com 1.10,2013-02-21 18:56:00,
2013-02-21 11:11:00,55.6,33.0,30.16,WNW,298,6.0,8.0,43,0.00,,,0.00,weatherlink.com 1.10,2013-02-21 19:11:00,
2013-02-21 11:26:00,56.2,32.0,30.16,WNW,296,4.0,9.0,40,0.00,,,0.00,weatherlink.com 1.10,2013-02-21 19:26:00,
2013-02-21 11:41:00,56.8,33.0,30.16,North,355,1.0,6.0,40,0.00,,,0.00,weatherlink.com 1.10,2013-02-21 19:41:00,
2013-02-21 11:56:00,57.5,33.0,30.15,West,268,0.0,8.0,40,0.00,,,0.00,weatherlink.com 1.10,2013-02-21 19:56:00,
2013-02-21 12:11:00,58.2,30.0,30.14,ESE,103,3.0,8.0,34,0.00,,,0.00,weatherlink.com 1.10,2013-02-21 20:11:00,
2013-02-21 12:26:00,59.2,31.0,30.13,SW,224,1.0,6.0,34,0.00,,,0.00,weatherlink.com 1.10,2013-02-21 20:26:00,
2013-02-21 12:41:00,59.6,32.0,30.13,WSW,248,2.0,6.0,36,0.00,,,0.00,weatherlink.com 1.10,2013-02-21 20:41:00,
2013-02-21 12:56:00,59.6,31.0,30.13,NW,317,2.0,7.0,34,0.00,,,0.00,weatherlink.com 1.10,2013-02-21 20:56:00,
2013-02-21 13:12:00,60.2,29.0,30.12,ESE,113,4.0,6.0,31,0.00,,,0.00,weatherlink.com 1.10,2013-02-21 21:12:00,
2013-02-21 13:27:00,60.8,33.0,30.12,WNW,296,3.0,9.0,36,0.00,,,0.00,weatherlink.com 1.10,2013-02-21 21:27:00,
2013-02-21 13:42:00,60.8,37.0,30.12,SW,225,2.0,5.0,41,0.00,,,0.00,weatherlink.com 1.10,2013-02-21 21:42:00,
2013-02-21 13:57:00,61.2,37.0,30.11,WNW,298,4.0,6.0,40,0.00,,,0.00,weatherlink.com 1.10,2013-02-21 21:57:00,
2013-02-21 14:12:00,61.5,35.0,30.11,WNW,288,2.0,7.0,37,0.00,,,0.00,weatherlink.com 1.10,2013-02-21 22:12:00,
2013-02-21 14:27:00,62.1,37.0,30.11,SW,227,2.0,5.0,40,0.00,,,0.00,weatherlink.com 1.10,2013-02-21 22:27:00,
2013-02-21 14:42:00,62.1,36.0,30.10,SSW,197,1.0,7.0,38,0.00,,,0.00,weatherlink.com 1.10,2013-02-21 22:42:00,
2013-02-21 14:57:00,62.2,35.0,30.10,WSW,244,2.0,5.0,36,0.00,,,0.00,weatherlink.com 1.10,2013-02-21 22:57:00,
2013-02-21 15:12:00,62.5,36.0,30.10,SW,214,6.0,6.0,37,0.00,,,0.00,weatherlink.com 1.10,2013-02-21 23:12:00,
2013-02-21 15:27:00,62.0,37.0,30.09,West,265,1.0,4.0,39,0.00,,,0.00,weatherlink.com 1.10,2013-02-21 23:27:00,
2013-02-21 15:42:00,61.6,37.0,30.09,WSW,242,1.0,6.0,40,0.00,,,0.00,weatherlink.com 1.10,2013-02-21 23:42:00,
2013-02-21 15:57:00,61.4,37.0,30.09,NW,305,0.0,6.0,41,0.00,,,0.00,weatherlink.com 1.10,2013-02-21 23:57:00,
2013-02-21 16:12:00,61.0,38.0,30.09,WSW,246,2.0,5.0,42,0.00,,,0.00,weatherlink.com 1.10,2013-02-22 00:12:00,
2013-02-21 16:27:00,60.8,37.0,30.09,NW,316,2.0,4.0,41,0.00,,,0.00,weatherlink.com 1.10,2013-02-22 00:27:00,
2013-02-21 16:42:00,58.2,37.0,30.10,WNW,301,2.0,6.0,46,0.00,,,0.00,weatherlink.com 1.10,2013-02-22 00:42:00,
2013-02-21 16:57:00,57.5,37.0,30.10,WNW,284,1.0,2.0,47,0.00,,,0.00,weatherlink.com 1.10,2013-02-22 00:57:00,
2013-02-21 17:12:00,56.8,38.0,30.10,WSW,250,3.0,5.0,50,0.00,,,0.00,weatherlink.com 1.10,2013-02-22 01:12:00,
2013-02-21 17:27:00,55.9,38.0,30.10,NW,306,0.0,2.0,52,0.00,,,0.00,weatherlink.com 1.10,2013-02-22 01:27:00,
2013-02-21 17:42:00,54.6,39.0,30.10,NW,306,0.0,1.0,55,0.00,,,0.00,weatherlink.com 1.10,2013-02-22 01:42:00,
2013-02-21 17:57:00,53.0,39.0,30.11,NW,306,0.0,0.0,60,0.00,,,0.00,weatherlink.com 1.10,2013-02-22 01:57:00,
2013-02-21 18:12:00,52.0,38.0,30.11,NW,307,0.0,1.0,60,0.00,,,0.00,weatherlink.com 1.10,2013-02-22 02:12:00,
2013-02-21 18:27:00,50.6,39.0,30.12,NW,307,0.0,1.0,64,0.00,,,0.00,weatherlink.com 1.10,2013-02-22 02:27:00,
2013-02-21 18:42:00,48.8,38.0,30.12,NW,307,0.0,1.0,66,0.00,,,0.00,weatherlink.com 1.10,2013-02-22 02:42:00,
2013-02-21 18:57:00,47.5,39.0,30.13,NW,307,0.0,1.0,71,0.00,,,0.00,weatherlink.com 1.10,2013-02-22 02:57:00,
2013-02-21 19:12:00,46.6,38.0,30.13,NW,307,0.0,0.0,73,0.00,,,0.00,weatherlink.com 1.10,2013-02-22 03:12:00,
2013-02-21 19:27:00,46.3,39.0,30.14,NW,307,0.0,1.0,75,0.00,,,0.00,weatherlink.com 1.10,2013-02-22 03:27:00,
2013-02-21 19:42:00,46.6,38.0,30.14,WSW,250,0.0,3.0,72,0.00,,,0.00,weatherlink.com 1.10,2013-02-22 03:42:00,
2013-02-21 19:57:00,44.3,37.0,30.14,WSW,250,0.0,1.0,76,0.00,,,0.00,weatherlink.com 1.10,2013-02-22 03:57:00,
2013-02-21 20:12:00,42.7,37.0,30.14,WSW,250,0.0,0.0,80,0.00,,,0.00,weatherlink.com 1.10,2013-02-22 04:12:00,
2013-02-21 20:27:00,41.6,37.0,30.14,WSW,249,0.0,0.0,82,0.00,,,0.00,weatherlink.com 1.10,2013-02-22 04:27:00,
2013-02-21 20:42:00,40.6,37.0,30.14,WSW,249,0.0,1.0,85,0.00,,,0.00,weatherlink.com 1.10,2013-02-22 04:42:00,
2013-02-21 20:57:00,40.2,36.0,30.15,WSW,249,0.0,1.0,86,0.00,,,0.00,weatherlink.com 1.10,2013-02-22 04:57:00,
2013-02-21 21:12:00,39.6,36.0,30.15,WSW,249,0.0,2.0,86,0.00,,,0.00,weatherlink.com 1.10,2013-02-22 05:12:00,
2013-02-21 21:27:00,39.5,36.0,30.15,WSW,249,0.0,2.0,88,0.00,,,0.00,weatherlink.com 1.10,2013-02-22 05:27:00,
2013-02-21 21:42:00,39.7,36.0,30.16,South,191,2.0,3.0,87,0.00,,,0.00,weatherlink.com 1.10,2013-02-22 05:42:00,
2013-02-21 21:57:00,39.3,36.0,30.16,South,191,0.0,1.0,88,0.00,,,0.00,weatherlink.com 1.10,2013-02-22 05:57:00,
2013-02-21 22:12:00,39.3,36.0,30.16,South,191,0.0,0.0,88,0.00,,,0.00,weatherlink.com 1.10,2013-02-22 06:12:00,
2013-02-21 22:27:00,39.1,36.0,30.16,South,191,1.0,1.0,89,0.00,,,0.00,weatherlink.com 1.10,2013-02-22 06:27:00,
2013-02-21 22:42:00,39.2,36.0,30.17,South,191,0.0,1.0,88,0.00,,,0.00,weatherlink.com 1.10,2013-02-22 06:42:00,
2013-02-21 22:57:00,38.7,36.0,30.17,SSW,192,0.0,2.0,88,0.00,,,0.00,weatherlink.com 1.10,2013-02-22 06:57:00,
2013-02-21 23:12:00,38.0,35.0,30.17,WSW,253,0.0,3.0,89,0.00,,,0.00,weatherlink.com 1.10,2013-02-22 07:12:00,
2013-02-21 23:27:00,37.9,35.0,30.18,WSW,253,0.0,1.0,90,0.00,,,0.00,weatherlink.com 1.10,2013-02-22 07:27:00,
2013-02-21 23:42:00,38.0,35.0,30.18,WSW,253,0.0,1.0,90,0.00,,,0.00,weatherlink.com 1.10,2013-02-22 07:42:00,
2013-02-21 23:57:00,37.7,35.0,30.17,SW,236,1.0,3.0,90,0.00,,,0.00,weatherlink.com 1.10,2013-02-22 07:57:00,